Starlink 32346

operational
NORAD ID: 61849 Int'l Des: 2024-202 Owner: SPXS Country: US Constellation: starlink
LEOCIRCULAR

关于 Starlink 32346

正在加载描述...

实时位置

正在加载3D地球...

即将过境

高度历史

Altitude vs Time

uPlot chart will show altitude changes over time

两行轨道根数

1 61849U 24202E 25259.03150603 .00000661 00000-0 33530-4 0 9990
2 61849 42.9986 133.3189 0000663 258.3201 101.7576 15.27588652 48741
Epoch: Sep 16, 2025 • Age: 10 hours

当前状态

高度 486.6 km
速度 7.63 km/s
星下点 43.08°N, 70.8°E
发射日期 Nov 7, 2024
运行时间 0.8 years
类型 internet

技术详情

分类 Payload
质量 730.00 kg
干质量 700.00 kg
总质量 730.00 kg
长度 0.30 m
直径 4.10 m
跨度 29.00 m
形状 Box + pan
制造商 SPXS
平台类型 Starlink V2M
阶段状态 In Orbit
所有者/国家 SPXS/US

大型星座

Loading constellations...